EN

Hourly Weather Lago da Pedra

Today, 24 July, Saturday

Time Temperature Precipitation Wind Pressure Humidity
00:00 +24°C° 0 mm 1 mps 755 mmHg 55%
01:00 +24°C° 0 mm 1 mps 754 mmHg 57%
02:00 +23°C° 0 mm 1 mps 754 mmHg 60%
03:00 +21°C° 0 mm 2 mps 754 mmHg 63%
04:00 +21°C° 0 mm 2 mps 754 mmHg 63%
05:00 +20°C° 0 mm 2 mps 755 mmHg 63%
06:00 +20°C° 0 mm 2 mps 755 mmHg 63%
07:00 +23°C° 0 mm 2 mps 755 mmHg 57%
08:00 +26°C° 0 mm 3 mps 756 mmHg 51%
09:00 +28°C° 0 mm 4 mps 756 mmHg 45%
10:00 +30°C° 0 mm 4 mps 756 mmHg 42%
11:00 +33°C° 0 mm 4 mps 756 mmHg 38%
12:00 +35°C° 0 mm 3 mps 755 mmHg 35%
13:00 +35°C° 0 mm 3 mps 755 mmHg 33%
14:00 +36°C° 0 mm 3 mps 754 mmHg 32%
15:00 +36°C° 0 mm 2 mps 753 mmHg 31%
16:00 +34°C° 0 mm 2 mps 753 mmHg 36%
17:00 +31°C° 0 mm 2 mps 753 mmHg 42%
18:00 +29°C° 0 mm 1 mps 753 mmHg 47%
19:00 +29°C° 0 mm 1 mps 753 mmHg 48%
20:00 +28°C° 0 mm 1 mps 753 mmHg 49%
21:00 +25°C° 0 mm 0 mps 754 mmHg 50%
22:00 +24°C° 0 mm 0 mps 753 mmHg 52%
23:00 +24°C° 0 mm 0 mps 753 mmHg 54%

Tomorrow, 25 July, Sunday

Time Temperature Precipitation Wind Pressure Humidity
00:00 +25°C° 0 mm 1 mps 753 mmHg 56%
01:00 +24°C° 0 mm 1 mps 753 mmHg 58%
02:00 +24°C° 0 mm 1 mps 753 mmHg 61%
03:00 +23°C° 0 mm 1 mps 753 mmHg 64%
04:00 +23°C° 0 mm 1 mps 754 mmHg 67%
05:00 +22°C° 0 mm 1 mps 754 mmHg 69%
06:00 +22°C° 0 mm 1 mps 754 mmHg 72%
07:00 +24°C° 0 mm 2 mps 755 mmHg 65%
08:00 +27°C° 0 mm 3 mps 755 mmHg 57%
09:00 +29°C° 0 mm 4 mps 756 mmHg 50%
10:00 +32°C° 0 mm 4 mps 755 mmHg 46%
11:00 +34°C° 0 mm 4 mps 755 mmHg 42%
12:00 +35°C° 0 mm 4 mps 754 mmHg 37%
13:00 +36°C° 0 mm 3 mps 754 mmHg 36%
14:00 +36°C° 0 mm 3 mps 753 mmHg 34%
15:00 +37°C° 0 mm 2 mps 752 mmHg 32%
16:00 +35°C° 0 mm 2 mps 752 mmHg 37%
17:00 +32°C° 0 mm 2 mps 752 mmHg 43%
18:00 +30°C° 0 mm 1 mps 752 mmHg 48%
19:00 +29°C° 0 mm 1 mps 752 mmHg 49%
20:00 +29°C° 0 mm 1 mps 753 mmHg 51%
21:00 +28°C° 0 mm 1 mps 753 mmHg 53%
22:00 +27°C° 0 mm 1 mps 753 mmHg 55%
23:00 +26°C° 0 mm 1 mps 753 mmHg 58%

Day after tomorrow, 26 July, Monday

Time Temperature Precipitation Wind Pressure Humidity
00:00 +25°C° 0 mm 1 mps 753 mmHg 60%
01:00 +25°C° 0 mm 1 mps 753 mmHg 63%
02:00 +24°C° 0 mm 1 mps 753 mmHg 66%
03:00 +23°C° 0 mm 2 mps 753 mmHg 69%
04:00 +23°C° 0 mm 1 mps 753 mmHg 72%
05:00 +23°C° 0 mm 1 mps 754 mmHg 75%
06:00 +22°C° 0 mm 1 mps 754 mmHg 77%
07:00 +24°C° 0 mm 2 mps 755 mmHg 67%
08:00 +27°C° 0 mm 3 mps 755 mmHg 57%
09:00 +29°C° 0 mm 4 mps 756 mmHg 47%
10:00 +32°C° 0 mm 4 mps 755 mmHg 43%
11:00 +34°C° 0 mm 3 mps 755 mmHg 39%
12:00 +35°C° 0 mm 3 mps 754 mmHg 35%
13:00 +36°C° 0 mm 3 mps 753 mmHg 34%
14:00 +36°C° 0 mm 2 mps 753 mmHg 33%
15:00 +37°C° 0 mm 2 mps 752 mmHg 32%
16:00 +35°C° 0 mm 2 mps 752 mmHg 37%
17:00 +34°C° 0 mm 2 mps 752 mmHg 42%
18:00 +31°C° 0 mm 2 mps 752 mmHg 47%
19:00 +30°C° 0 mm 2 mps 752 mmHg 55%
20:00 +28°C° 0 mm 1 mps 753 mmHg 62%
21:00 +27°C° 0 mm 1 mps 753 mmHg 69%
22:00 +26°C° 0 mm 1 mps 753 mmHg 70%
23:00 +26°C° 0 mm 1 mps 753 mmHg 72%

27 July, Tuesday

Time Temperature Precipitation Wind Pressure Humidity
00:00 +26°C° 0 mm 1 mps 753 mmHg 74%
01:00 +25°C° 0.1 mm 1 mps 753 mmHg 76%
02:00 +25°C° 0.1 mm 1 mps 753 mmHg 78%
03:00 +23°C° 0.1 mm 0 mps 753 mmHg 80%
04:00 +23°C° 0.3 mm 0 mps 753 mmHg 85%
05:00 +22°C° 0.3 mm 0 mps 753 mmHg 90%
06:00 +21°C° 0.3 mm 0 mps 754 mmHg 94%
07:00 +25°C° 0.1 mm 1 mps 754 mmHg 87%
08:00 +27°C° 0.1 mm 1 mps 754 mmHg 80%
09:00 +29°C° 0.1 mm 1 mps 755 mmHg 72%
10:00 +31°C° 0.1 mm 1 mps 755 mmHg 61%
11:00 +34°C° 0.1 mm 2 mps 754 mmHg 49%
12:00 +37°C° 0.1 mm 3 mps 754 mmHg 37%
13:00 +37°C° 0 mm 2 mps 753 mmHg 36%
14:00 +37°C° 0 mm 2 mps 752 mmHg 35%
15:00 +38°C° 0 mm 2 mps 751 mmHg 34%
16:00 +36°C° 0 mm 2 mps 751 mmHg 39%
17:00 +34°C° 0 mm 2 mps 751 mmHg 45%
18:00 +32°C° 0 mm 2 mps 752 mmHg 51%
19:00 +31°C° 0 mm 1 mps 752 mmHg 55%
20:00 +30°C° 0 mm 1 mps 753 mmHg 60%
21:00 +29°C° 0 mm 1 mps 753 mmHg 64%
22:00 +28°C° 0 mm 1 mps 753 mmHg 68%
23:00 +27°C° 0 mm 1 mps 753 mmHg 72%

28 July, Wednesday

Time Temperature Precipitation Wind Pressure Humidity
00:00 +27°C° 0 mm 2 mps 753 mmHg 75%
01:00 +26°C° 0.2 mm 1 mps 753 mmHg 82%
02:00 +25°C° 0.2 mm 1 mps 753 mmHg 89%
03:00 +24°C° 0.2 mm 1 mps 753 mmHg 95%
04:00 +24°C° 0 mm 1 mps 753 mmHg 96%
05:00 +24°C° 0 mm 1 mps 753 mmHg 96%
06:00 +24°C° 0 mm 1 mps 753 mmHg 97%
07:00 +26°C° 0 mm 1 mps 753 mmHg 89%
08:00 +27°C° 0 mm 2 mps 754 mmHg 80%
09:00 +29°C° 0 mm 2 mps 754 mmHg 72%
10:00 +31°C° 0 mm 2 mps 754 mmHg 62%
11:00 +35°C° 0 mm 2 mps 753 mmHg 52%
12:00 +37°C° 0 mm 2 mps 753 mmHg 41%
13:00 +37°C° 0 mm 2 mps 752 mmHg 41%
14:00 +37°C° 0 mm 2 mps 751 mmHg 41%
15:00 +37°C° 0 mm 2 mps 751 mmHg 42%
16:00 +34°C° 0 mm 1 mps 751 mmHg 46%
17:00 +33°C° 0 mm 1 mps 751 mmHg 50%
18:00 +31°C° 0 mm 1 mps 751 mmHg 54%
19:00 +30°C° 0 mm 1 mps 752 mmHg 60%
20:00 +29°C° 0 mm 2 mps 752 mmHg 65%
21:00 +28°C° 0 mm 2 mps 752 mmHg 71%
22:00 +27°C° 0 mm 1 mps 753 mmHg 77%
23:00 +26°C° 0 mm 1 mps 753 mmHg 83%

29 July, Thursday

Time Temperature Precipitation Wind Pressure Humidity
00:00 +25°C° 0 mm 1 mps 753 mmHg 89%
01:00 +25°C° 0.3 mm 1 mps 753 mmHg 92%
02:00 +24°C° 0.3 mm 1 mps 753 mmHg 95%
03:00 +24°C° 0.3 mm 1 mps 752 mmHg 97%
04:00 +24°C° 0 mm 1 mps 753 mmHg 97%
05:00 +24°C° 0 mm 1 mps 753 mmHg 98%
06:00 +22°C° 0 mm 0 mps 753 mmHg 98%
07:00 +26°C° 0 mm 1 mps 754 mmHg 89%
08:00 +28°C° 0 mm 1 mps 754 mmHg 80%
09:00 +30°C° 0 mm 2 mps 755 mmHg 71%
10:00 +32°C° 0 mm 2 mps 754 mmHg 62%
11:00 +35°C° 0 mm 2 mps 754 mmHg 54%
12:00 +36°C° 0 mm 2 mps 753 mmHg 45%
13:00 +36°C° 0 mm 2 mps 753 mmHg 47%
14:00 +35°C° 0 mm 1 mps 752 mmHg 49%
15:00 +32°C° 0 mm 0 mps 751 mmHg 51%
16:00 +32°C° 0.2 mm 1 mps 751 mmHg 58%
17:00 +31°C° 0.2 mm 2 mps 752 mmHg 65%
18:00 +29°C° 0.2 mm 2 mps 752 mmHg 71%
19:00 +28°C° 0.9 mm 2 mps 752 mmHg 79%
20:00 +27°C° 0.9 mm 2 mps 753 mmHg 86%
21:00 +26°C° 0.9 mm 1 mps 754 mmHg 93%
22:00 +25°C° 1.5 mm 1 mps 754 mmHg 95%
23:00 +25°C° 1.5 mm 1 mps 754 mmHg 96%
Show more